User: anonymous   Login
Location: Pine Mountain Observatory
(43.7910°N, 120.9377°W)
Time: 09:55:01
(UTC-07:00)
Language:

Cosmos 1867 - Orbit

View from above orbital plane
View from above orbital plane
View from above satellite
View from above satellite

Ground track
Ground track

The orbit data is extracted from the following two-line orbital elements,

1 18187U 87060A   16211.93512074 -.00000103 +00000-0 -87563-6 0  9999
2 18187 065.0106 050.6538 0020553 264.6487 095.2252 14.31076644517659
Epoch (UTC): 29 July 2016 22:26:34
Eccentricity: 0.0020553
inclination: 65.0106°
perigee height: 773 km
apogee height: 803 km
right ascension of ascending node: 50.6538°
argument of perigee: 264.6487°
revolutions per day: 14.31076644
mean anomaly at epoch: 95.2252°
orbit number at epoch: 51765

The dashed part of the orbit path shows where the satellite is in the earth's shadow,  

DLR